Location: Home
(42.5358°N, 72.7383°W)
Time: 21:50:23
(UTC-05:00)

Vanguard 1 Rocket - Pass Details

Date: 01 December 2021
Orbit: 651 x 4225 km, 34.3° (Epoch: 26 January)

Event Time Altitude Azimuth Distance (km) Brightness Sun altitude
Exits shadow 02:12:17 42° 136° (SE) 3,239 10.0 -52.2°
Drops below altitude 10° 02:28:45 10° 85° (E) 6,697 12.3 -49.3°
Sets 02:35:16 0° 80° (E) 8,113 12.9 -48.2°
